| time (UTC) | temp F | wind direction | speed MPH | gust MPH | rain 1hr in | rain 24hr in | rain mn in | humidity % | barometer mb |
| 20260506121549 | 71 | 125 | 2.0 | 11.0 | 0.00 | 0.00 | 0.00 | 44 | 1005.7 |
| 20260506120037 | 70 | 181 | 2.0 | 9.0 | 0.00 | 0.00 | 0.00 | 49 | 1005.9 |
| 20260506114536 | 71 | 139 | 3.0 | 8.0 | 0.00 | 0.00 | 0.00 | 45 | 1005.8 |
| 20260506113039 | 70 | 149 | 3.0 | 8.0 | 0.00 | 0.00 | 0.00 | 44 | 1006.0 |
| 20260506111536 | 70 | 101 | 2.0 | 5.0 | 0.00 | 0.00 | 0.00 | 46 | 1006.1 |
| 20260506110041 | 71 | 272 | 2.0 | 6.0 | 0.00 | 0.00 | 0.00 | 46 | 1006.2 |
| 20260506104534 | 72 | 196 | 2.0 | 6.0 | 0.00 | 0.00 | 0.00 | 46 | 1006.3 |
| 20260506103032 | 72 | 214 | 1.0 | 5.0 | 0.00 | 0.00 | 0.00 | 47 | 1006.5 |
| 20260506101532 | 70 | 359 | 0.0 | 6.0 | 0.00 | 0.00 | 0.00 | 53 | 1006.7 |
| 20260506100026 | 68 | 149 | 3.0 | 7.0 | 0.00 | 0.00 | 0.00 | 54 | 1006.8 |
| 20260506094527 | 68 | 288 | 2.0 | 8.0 | 0.00 | 0.00 | 0.00 | 54 | 1007.0 |
| 20260506093031 | 68 | 209 | 3.0 | 7.0 | 0.00 | 0.00 | 0.00 | 52 | 1007.0 |
| 20260506091521 | 67 | 300 | 1.0 | 4.0 | 0.00 | 0.00 | 0.00 | 56 | 1006.9 |
| 20260506090019 | 67 | 185 | 0.0 | 7.0 | 0.00 | 0.00 | 0.00 | 57 | 1007.0 |
| 20260506084518 | 66 | 204 | 0.0 | 3.0 | 0.00 | 0.00 | 0.00 | 58 | 1007.1 |
| 20260506083027 | 66 | 50 | 1.0 | 4.0 | 0.00 | 0.00 | 0.00 | 58 | 1007.0 |
| 20260506081516 | 65 | 251 | 1.0 | 4.0 | 0.00 | 0.00 | 0.00 | 61 | 1007.1 |
| 20260506073008 | 63 | 234 | 0.0 | 6.0 | 0.00 | 0.00 | 0.00 | 66 | 1007.1 |
| 20260506071504 | 61 | 277 | 1.0 | 5.0 | 0.00 | 0.00 | 0.00 | 70 | 1007.3 |
| 20260506061559 | 59 | 230 | 0.0 | 4.0 | 0.00 | 0.00 | 0.00 | 73 | 1007.3 |
| 20260506044553 | 57 | 217 | 0.0 | 3.0 | 0.00 | 0.00 | 0.00 | 76 | 1007.0 |
| 20260506043050 | 56 | 183 | 0.0 | 1.0 | 0.00 | 0.00 | 0.00 | 79 | 1006.8 |
| 20260506041548 | 54 | 203 | 1.0 | 3.0 | 0.00 | 0.00 | 0.00 | 83 | 1006.8 |
| 20260506040048 | 53 | 198 | 0.0 | 2.0 | 0.00 | 0.00 | 0.00 | 86 | 1006.8 |
| 20260506034606 | 52 | 260 | 0.0 | 1.0 | 0.00 | 0.00 | 0.00 | 86 | 1006.5 |
| 20260506033045 | 52 | 127 | 0.0 | 2.0 | 0.00 | 0.00 | 0.00 | 86 | 1006.5 |
| 20260506031551 | 52 | 231 | 0.0 | 1.0 | 0.00 | 0.00 | 0.00 | 87 | 1006.3 |
| 20260506030043 | 53 | 112 | 0.0 | 1.0 | 0.00 | 0.00 | 0.00 | 86 | 1006.4 |
| 20260506024549 | 53 | 261 | 0.0 | 2.0 | 0.00 | 0.00 | 0.00 | 87 | 1006.5 |
| 20260506023040 | 54 | 259 | 0.0 | 1.0 | 0.00 | 0.00 | 0.00 | 86 | 1006.5 |
| 20260506021538 | 54 | 256 | 0.0 | 3.0 | 0.00 | 0.00 | 0.00 | 86 | 1006.5 |
| 20260506020037 | 54 | 286 | 0.0 | 3.0 | 0.00 | 0.00 | 0.00 | 85 | 1006.4 |
| 20260506014536 | 55 | 245 | 0.0 | 2.0 | 0.00 | 0.00 | 0.00 | 86 | 1006.5 |
| 20260506013034 | 55 | 210 | 0.0 | 3.0 | 0.00 | 0.00 | 0.00 | 85 | 1006.3 |
| 20260506011530 | 56 | 220 | 0.0 | 2.0 | 0.00 | 0.00 | 0.00 | 85 | 1006.4 |
| 20260506010047 | 56 | 198 | 0.0 | 0.0 | 0.00 | 0.00 | 0.00 | 84 | 1006.2 |
| 20260506004527 | 56 | 272 | 0.0 | 1.0 | 0.00 | 0.00 | 0.00 | 84 | 1006.2 |
| 20260506003026 | 57 | 283 | 0.0 | 1.0 | 0.00 | 0.00 | 0.00 | 83 | 1006.2 |
| 20260506001526 | 57 | 46 | 0.0 | 3.0 | 0.00 | 0.00 | 0.00 | 83 | 1005.9 |
| 20260506000022 | 57 | 288 | 0.0 | 2.0 | 0.00 | 0.00 | 0.00 | 81 | 1005.8 |
| 20260505234521 | 58 | 297 | 0.0 | 3.0 | 0.00 | 0.00 | 0.00 | 80 | 1006.2 |
| 20260505233019 | 58 | 96 | 0.0 | 4.0 | 0.00 | 0.00 | 0.00 | 80 | 1006.2 |
| 20260505231518 | 58 | 14 | 0.0 | 3.0 | 0.00 | 0.00 | 0.00 | 78 | 1006.3 |
| 20260505230023 | 59 | 291 | 0.0 | 2.0 | 0.00 | 0.00 | 0.00 | 77 | 1006.3 |
| 20260505224513 | 59 | 1 | 0.0 | 2.0 | 0.00 | 0.00 | 0.00 | 77 | 1006.3 |
| 20260505223010 | 60 | 299 | 1.0 | 5.0 | 0.00 | 0.00 | 0.00 | 76 | 1006.1 |
| 20260505221510 | 60 | 23 | 2.0 | 6.0 | 0.00 | 0.00 | 0.00 | 75 | 1005.8 |
| 20260505220005 | 60 | 46 | 2.0 | 9.0 | 0.00 | 0.00 | 0.00 | 71 | 1005.5 |
| 20260505214506 | 61 | 62 | 0.0 | 1.0 | 0.00 | 0.00 | 0.00 | 64 | 1005.0 |
| 20260505213012 | 61 | 255 | 0.0 | 8.0 | 0.00 | 0.00 | 0.00 | 63 | 1004.8 |
| 20260505211503 | 62 | 95 | 4.0 | 9.0 | 0.00 | 0.00 | 0.00 | 61 | 1004.2 |
| 20260505210004 | 62 | 193 | 3.0 | 7.0 | 0.00 | 0.00 | 0.00 | 61 | 1003.9 |
| 20260505204502 | 62 | 149 | 0.0 | 6.0 | 0.00 | 0.00 | 0.00 | 60 | 1003.7 |
| 20260505203002 | 62 | 210 | 1.0 | 4.0 | 0.00 | 0.00 | 0.00 | 60 | 1003.7 |
| 20260505201501 | 62 | 120 | 1.0 | 2.0 | 0.00 | 0.00 | 0.00 | 62 | 1003.6 |
| 20260505200002 | 62 | 117 | 0.0 | 3.0 | 0.00 | 0.00 | 0.00 | 62 | 1003.8 |
| 20260505194600 | 62 | 125 | 1.0 | 4.0 | 0.00 | 0.00 | 0.00 | 63 | 1003.6 |
| 20260505193100 | 63 | 86 | 1.0 | 6.0 | 0.00 | 0.00 | 0.00 | 65 | 1003.6 |
| 20260505191608 | 63 | 107 | 1.0 | 3.0 | 0.00 | 0.00 | 0.00 | 66 | 1003.6 |
| 20260505190104 | 63 | 49 | 0.0 | 1.0 | 0.00 | 0.00 | 0.00 | 69 | 1003.6 |
| 20260505184603 | 63 | 271 | 0.0 | 2.0 | 0.00 | 0.00 | 0.00 | 69 | 1003.5 |
| 20260505183129 | 63 | 330 | 0.0 | 1.0 | 0.00 | 0.00 | 0.00 | 69 | 1003.6 |
| 20260505181557 | 63 | 41 | 1.0 | 5.0 | 0.00 | 0.00 | 0.00 | 70 | 1003.6 |
| 20260505180056 | 63 | 63 | 4.0 | 7.0 | 0.00 | 0.00 | 0.00 | 69 | 1003.7 |
| 20260505174554 | 63 | 28 | 1.0 | 6.0 | 0.00 | 0.00 | 0.00 | 68 | 1003.8 |
| 20260505173054 | 64 | 45 | 3.0 | 11.0 | 0.00 | 0.00 | 0.00 | 67 | 1004.0 |
| 20260505171559 | 65 | 349 | 3.0 | 12.0 | 0.00 | 0.00 | 0.00 | 64 | 1004.0 |
| 20260505170049 | 66 | 25 | 3.0 | 8.0 | 0.00 | 0.00 | 0.00 | 60 | 1004.2 |
| 20260505164550 | 67 | 352 | 1.0 | 3.0 | 0.00 | 0.00 | 0.00 | 58 | 1004.3 |
| 20260505163049 | 68 | 15 | 1.0 | 3.0 | 0.00 | 0.00 | 0.00 | 57 | 1004.3 |
| 20260505161600 | 69 | 254 | 0.0 | 3.0 | 0.00 | 0.00 | 0.00 | 54 | 1004.3 |
| 20260505153047 | 72 | 197 | 3.0 | 12.0 | 0.00 | 0.00 | 0.00 | 43 | 1004.2 |
| 20260505151544 | 73 | 93 | 4.0 | 11.0 | 0.00 | 0.00 | 0.00 | 41 | 1004.3 |
| 20260505124533 | 75 | 84 | 3.0 | 15.0 | 0.00 | 0.00 | 0.00 | 43 | 1005.1 |
| 20260505123031 | 75 | 167 | 4.0 | 10.0 | 0.00 | 0.00 | 0.00 | 41 | 1005.4 |